| time (UTC) | temp F | wind direction | speed MPH | gust MPH | rain 1hr in | rain 24hr in | rain mn in | humidity % | barometer mb |
| 20260507213027 | 65 | 324 | 5.0 | 12.0 | 0.00 | 0.10 | 0.03 | 49 | 1014.6 |
| 20260507212511 | 65 | 11 | 4.0 | 10.0 | 0.00 | 0.10 | 0.03 | 49 | 1014.6 |
| 20260507212017 | 65 | 355 | 2.0 | 8.0 | 0.00 | 0.10 | 0.03 | 48 | 1014.5 |
| 20260507211518 | 66 | 333 | 2.0 | 13.0 | 0.00 | 0.10 | 0.03 | 50 | 1014.5 |
| 20260507211009 | 66 | 355 | 4.0 | 13.0 | 0.00 | 0.10 | 0.03 | 55 | 1014.5 |
| 20260507210508 | 66 | 333 | 5.0 | 13.0 | 0.00 | 0.10 | 0.03 | 51 | 1014.5 |
| 20260507210026 | 64 | 351 | 1.0 | 9.0 | 0.00 | 0.10 | 0.03 | 52 | 1014.5 |
| 20260507205511 | 64 | 315 | 5.0 | 9.0 | 0.00 | 0.10 | 0.03 | 50 | 1014.5 |
| 20260507205007 | 64 | 288 | 2.0 | 8.0 | 0.00 | 0.10 | 0.03 | 55 | 1014.5 |
| 20260507204528 | 66 | 279 | 2.0 | 8.0 | 0.00 | 0.10 | 0.03 | 52 | 1014.4 |
| 20260507204009 | 66 | 279 | 2.0 | 10.0 | 0.00 | 0.10 | 0.03 | 52 | 1014.4 |
| 20260507203510 | 66 | 288 | 2.0 | 10.0 | 0.00 | 0.10 | 0.03 | 52 | 1014.4 |
| 20260507203029 | 66 | 295 | 3.0 | 8.0 | 0.00 | 0.10 | 0.03 | 52 | 1014.3 |
| 20260507202509 | 67 | 294 | 3.0 | 9.0 | 0.00 | 0.10 | 0.03 | 55 | 1014.4 |
| 20260507202015 | 66 | 309 | 2.0 | 9.0 | 0.00 | 0.10 | 0.03 | 57 | 1014.4 |
| 20260507201530 | 65 | 338 | 2.0 | 11.0 | 0.00 | 0.10 | 0.03 | 56 | 1014.4 |
| 20260507201011 | 65 | 9 | 6.0 | 11.0 | 0.00 | 0.10 | 0.03 | 48 | 1014.4 |
| 20260507200503 | 66 | 323 | 5.0 | 9.0 | 0.00 | 0.10 | 0.03 | 49 | 1014.4 |
| 20260507200003 | 65 | 42 | 3.0 | 9.0 | 0.00 | 0.10 | 0.03 | 60 | 1014.4 |
| 20260507195502 | 66 | 301 | 4.0 | 9.0 | 0.00 | 0.10 | 0.03 | 52 | 1014.6 |
| 20260507195002 | 66 | 294 | 1.0 | 10.0 | 0.00 | 0.10 | 0.03 | 56 | 1014.6 |
| 20260507194506 | 64 | 335 | 5.0 | 12.0 | 0.00 | 0.10 | 0.03 | 55 | 1014.7 |
| 20260507194001 | 64 | 270 | 7.0 | 12.0 | 0.00 | 0.10 | 0.03 | 50 | 1014.7 |
| 20260507193503 | 65 | 22 | 4.0 | 11.0 | 0.00 | 0.10 | 0.03 | 53 | 1014.8 |
| 20260507193017 | 65 | 89 | 5.0 | 11.0 | 0.00 | 0.10 | 0.03 | 57 | 1014.9 |
| 20260507192505 | 64 | 265 | 2.0 | 11.0 | 0.00 | 0.11 | 0.03 | 50 | 1014.8 |
| 20260507192003 | 65 | 304 | 2.0 | 8.0 | 0.00 | 0.12 | 0.03 | 56 | 1014.9 |
| 20260507191516 | 64 | 342 | 4.0 | 9.0 | 0.00 | 0.12 | 0.03 | 52 | 1015.0 |
| 20260507191003 | 64 | 355 | 4.0 | 10.0 | 0.00 | 0.12 | 0.03 | 58 | 1015.0 |
| 20260507190509 | 65 | 5 | 6.0 | 10.0 | 0.00 | 0.12 | 0.03 | 59 | 1015.0 |
| 20260507190022 | 65 | 16 | 4.0 | 9.0 | 0.00 | 0.12 | 0.03 | 56 | 1015.1 |
| 20260507185507 | 64 | 325 | 4.0 | 9.0 | 0.00 | 0.12 | 0.03 | 54 | 1015.1 |
| 20260507185003 | 64 | 5 | 4.0 | 9.0 | 0.00 | 0.12 | 0.03 | 59 | 1015.0 |
| 20260507184503 | 65 | 331 | 3.0 | 8.0 | 0.00 | 0.12 | 0.03 | 59 | 1015.0 |
| 20260507184002 | 63 | 292 | 4.0 | 8.0 | 0.00 | 0.12 | 0.03 | 61 | 1014.9 |
| 20260507183502 | 63 | 263 | 3.0 | 9.0 | 0.00 | 0.12 | 0.03 | 60 | 1015.1 |
| 20260507183009 | 63 | 310 | 4.0 | 9.0 | 0.00 | 0.12 | 0.03 | 56 | 1015.2 |
| 20260507182503 | 62 | 300 | 2.0 | 11.0 | 0.00 | 0.12 | 0.03 | 65 | 1015.2 |
| 20260507182004 | 61 | 328 | 4.0 | 11.0 | 0.00 | 0.12 | 0.03 | 64 | 1015.2 |
| 20260507181514 | 61 | 42 | 3.0 | 11.0 | 0.00 | 0.12 | 0.03 | 64 | 1015.3 |
| 20260507181007 | 61 | 302 | 4.0 | 11.0 | 0.00 | 0.12 | 0.03 | 63 | 1015.5 |
| 20260507180506 | 62 | 337 | 3.0 | 8.0 | 0.00 | 0.12 | 0.03 | 61 | 1015.5 |
| 20260507180018 | 63 | 311 | 4.0 | 9.0 | 0.00 | 0.12 | 0.03 | 60 | 1015.5 |
| 20260507175511 | 60 | 5 | 4.0 | 9.0 | 0.00 | 0.12 | 0.03 | 62 | 1015.5 |
| 20260507175006 | 60 | 314 | 3.0 | 10.0 | 0.00 | 0.12 | 0.03 | 63 | 1015.6 |
| 20260507174540 | 61 | 342 | 4.0 | 10.0 | 0.00 | 0.12 | 0.03 | 62 | 1015.5 |
| 20260507174011 | 60 | 264 | 5.0 | 12.0 | 0.00 | 0.12 | 0.03 | 58 | 1015.5 |
| 20260507173507 | 61 | 317 | 3.0 | 12.0 | 0.00 | 0.12 | 0.03 | 64 | 1015.6 |
| 20260507173013 | 61 | 23 | 3.0 | 8.0 | 0.00 | 0.12 | 0.03 | 63 | 1015.6 |
| 20260507172503 | 60 | 333 | 4.0 | 10.0 | 0.00 | 0.12 | 0.03 | 65 | 1015.6 |
| 20260507172004 | 60 | 332 | 6.0 | 10.0 | 0.00 | 0.12 | 0.03 | 64 | 1015.7 |
| 20260507171511 | 61 | 267 | 3.0 | 14.0 | 0.00 | 0.12 | 0.03 | 65 | 1015.5 |
| 20260507171003 | 60 | 11 | 4.0 | 14.0 | 0.00 | 0.12 | 0.03 | 67 | 1015.5 |
| 20260507170503 | 61 | 32 | 7.0 | 14.0 | 0.00 | 0.12 | 0.03 | 60 | 1015.5 |
| 20260507170014 | 62 | 313 | 3.0 | 12.0 | 0.00 | 0.12 | 0.03 | 67 | 1015.6 |
| 20260507165510 | 62 | 307 | 6.0 | 12.0 | 0.00 | 0.12 | 0.03 | 57 | 1015.8 |
| 20260507165007 | 63 | 313 | 6.0 | 11.0 | 0.00 | 0.12 | 0.03 | 63 | 1015.8 |
| 20260507164524 | 61 | 304 | 5.0 | 15.0 | 0.00 | 0.12 | 0.03 | 61 | 1015.9 |
| 20260507164006 | 62 | 347 | 4.0 | 15.0 | 0.00 | 0.12 | 0.03 | 64 | 1016.1 |
| 20260507163508 | 62 | 338 | 5.0 | 11.0 | 0.00 | 0.12 | 0.03 | 60 | 1015.9 |
| 20260507163023 | 63 | 30 | 5.0 | 10.0 | 0.00 | 0.12 | 0.03 | 66 | 1015.9 |
| 20260507162511 | 61 | 311 | 4.0 | 9.0 | 0.00 | 0.12 | 0.03 | 60 | 1015.8 |
| 20260507162008 | 60 | 324 | 3.0 | 11.0 | 0.00 | 0.12 | 0.03 | 65 | 1016.1 |
| 20260507161516 | 60 | 279 | 4.0 | 11.0 | 0.00 | 0.12 | 0.03 | 63 | 1016.1 |
| 20260507161008 | 61 | 331 | 6.0 | 12.0 | 0.00 | 0.12 | 0.03 | 68 | 1016.2 |
| 20260507160504 | 60 | 336 | 7.0 | 12.0 | 0.00 | 0.12 | 0.03 | 60 | 1016.2 |
| 20260507160015 | 61 | 340 | 6.0 | 14.0 | 0.00 | 0.12 | 0.03 | 64 | 1016.1 |
| 20260507155506 | 61 | 338 | 4.0 | 14.0 | 0.00 | 0.12 | 0.03 | 62 | 1016.1 |
| 20260507155006 | 61 | 315 | 4.0 | 10.0 | 0.00 | 0.12 | 0.03 | 61 | 1016.1 |
| 20260507154521 | 61 | 294 | 4.0 | 13.0 | 0.00 | 0.12 | 0.03 | 62 | 1016.1 |
| 20260507154008 | 60 | 350 | 6.0 | 13.0 | 0.00 | 0.12 | 0.03 | 67 | 1016.0 |
| 20260507153508 | 59 | 345 | 6.0 | 14.0 | 0.00 | 0.12 | 0.03 | 65 | 1016.0 |
| 20260507153026 | 59 | 342 | 6.0 | 14.0 | 0.00 | 0.12 | 0.03 | 67 | 1016.0 |
| 20260507152510 | 59 | 12 | 5.0 | 13.0 | 0.00 | 0.12 | 0.03 | 65 | 1016.0 |
| 20260507152006 | 59 | 5 | 4.0 | 16.0 | 0.00 | 0.12 | 0.03 | 68 | 1015.9 |
| 20260507151524 | 58 | 31 | 5.0 | 16.0 | 0.00 | 0.12 | 0.03 | 71 | 1015.9 |
| 20260507151008 | 59 | 350 | 5.0 | 13.0 | 0.00 | 0.12 | 0.03 | 70 | 1015.9 |
| 20260507150509 | 58 | 355 | 7.0 | 13.0 | 0.00 | 0.12 | 0.03 | 68 | 1015.8 |
| 20260507150008 | 58 | 27 | 7.0 | 13.0 | 0.00 | 0.12 | 0.03 | 70 | 1015.9 |
| 20260507145502 | 58 | 342 | 5.0 | 11.0 | 0.00 | 0.12 | 0.03 | 69 | 1015.9 |
| 20260507145008 | 58 | 329 | 6.0 | 12.0 | 0.00 | 0.12 | 0.03 | 69 | 1015.8 |
| 20260507144515 | 58 | 338 | 7.0 | 12.0 | 0.00 | 0.12 | 0.03 | 70 | 1015.8 |
| 20260507144007 | 58 | 27 | 6.0 | 15.0 | 0.00 | 0.12 | 0.03 | 70 | 1015.7 |
| 20260507143507 | 57 | 16 | 6.0 | 15.0 | 0.00 | 0.12 | 0.03 | 72 | 1015.8 |
| 20260507143019 | 57 | 39 | 6.0 | 15.0 | 0.00 | 0.12 | 0.03 | 73 | 1015.8 |
| 20260507142508 | 57 | 338 | 6.0 | 11.0 | 0.00 | 0.12 | 0.03 | 71 | 1015.8 |
| 20260507142006 | 57 | 315 | 4.0 | 11.0 | 0.00 | 0.12 | 0.03 | 74 | 1015.7 |
| 20260507141525 | 56 | 328 | 5.0 | 11.0 | 0.00 | 0.12 | 0.03 | 73 | 1015.6 |
| 20260507141015 | 57 | 335 | 3.0 | 12.0 | 0.00 | 0.12 | 0.03 | 75 | 1015.5 |
| 20260507140503 | 56 | 355 | 6.0 | 12.0 | 0.00 | 0.13 | 0.03 | 76 | 1015.5 |
| 20260507140013 | 56 | 33 | 5.0 | 10.0 | 0.00 | 0.15 | 0.03 | 76 | 1015.5 |
| 20260507135503 | 55 | 350 | 5.0 | 11.0 | 0.00 | 0.18 | 0.03 | 77 | 1015.4 |
| 20260507135007 | 55 | 10 | 6.0 | 11.0 | 0.00 | 0.20 | 0.03 | 79 | 1015.4 |
| 20260507134511 | 55 | 333 | 4.0 | 14.0 | 0.00 | 0.21 | 0.03 | 82 | 1015.5 |
| 20260507134002 | 54 | 355 | 6.0 | 14.0 | 0.00 | 0.21 | 0.03 | 81 | 1015.5 |
| 20260507133506 | 54 | 327 | 5.0 | 14.0 | 0.00 | 0.21 | 0.03 | 84 | 1015.3 |
| 20260507133017 | 54 | 323 | 6.0 | 14.0 | 0.00 | 0.21 | 0.03 | 86 | 1015.4 |
| 20260507132507 | 53 | 15 | 7.0 | 14.0 | 0.00 | 0.21 | 0.03 | 88 | 1015.4 |
| 20260507132002 | 53 | 346 | 2.0 | 14.0 | 0.00 | 0.21 | 0.03 | 90 | 1015.5 |
| 20260507131503 | 52 | 5 | 6.0 | 10.0 | 0.00 | 0.21 | 0.03 | 91 | 1015.6 |
| 20260507131002 | 52 | 27 | 5.0 | 9.0 | 0.00 | 0.21 | 0.03 | 94 | 1015.5 |
| 20260507130503 | 52 | 349 | 2.0 | 6.0 | 0.00 | 0.21 | 0.03 | 95 | 1015.6 |
| 20260507130006 | 51 | 339 | 2.0 | 8.0 | 0.01 | 0.21 | 0.03 | 95 | 1015.6 |
| 20260507125506 | 51 | 340 | 2.0 | 9.0 | 0.01 | 0.21 | 0.03 | 95 | 1015.6 |
| 20260507125004 | 50 | 331 | 3.0 | 9.0 | 0.01 | 0.21 | 0.03 | 95 | 1015.6 |
| 20260507124507 | 50 | 321 | 2.0 | 8.0 | 0.01 | 0.21 | 0.03 | 95 | 1015.6 |
| 20260507124003 | 50 | 333 | 1.0 | 9.0 | 0.01 | 0.21 | 0.03 | 95 | 1015.6 |
| 20260507123505 | 50 | 25 | 5.0 | 9.0 | 0.01 | 0.21 | 0.03 | 95 | 1015.5 |
| 20260507123015 | 50 | 336 | 2.0 | 9.0 | 0.01 | 0.21 | 0.03 | 96 | 1015.4 |
| 20260507122503 | 50 | 322 | 2.0 | 9.0 | 0.01 | 0.21 | 0.03 | 96 | 1015.4 |
| 20260507122008 | 50 | 360 | 1.0 | 3.0 | 0.01 | 0.21 | 0.03 | 96 | 1015.4 |
| 20260507121518 | 50 | 340 | 1.0 | 4.0 | 0.01 | 0.21 | 0.03 | 96 | 1015.4 |
| 20260507121005 | 50 | 330 | 1.0 | 4.0 | 0.01 | 0.21 | 0.03 | 96 | 1015.4 |
| 20260507120503 | 50 | 329 | 0.0 | 4.0 | 0.01 | 0.21 | 0.03 | 96 | 1015.4 |
| 20260507120003 | 49 | 336 | 1.0 | 4.0 | 0.00 | 0.20 | 0.02 | 96 | 1015.3 |
| 20260507115503 | 49 | 335 | 1.0 | 3.0 | 0.00 | 0.20 | 0.02 | 96 | 1015.2 |
| 20260507115003 | 49 | 335 | 1.0 | 3.0 | 0.00 | 0.20 | 0.02 | 96 | 1015.1 |
| 20260507114507 | 49 | 335 | 1.0 | 3.0 | 0.00 | 0.20 | 0.02 | 96 | 1015.0 |
| 20260507114003 | 49 | 336 | 0.0 | 2.0 | 0.00 | 0.21 | 0.02 | 96 | 1015.1 |
| 20260507113506 | 49 | 336 | 1.0 | 2.0 | 0.00 | 0.21 | 0.02 | 96 | 1015.0 |
| 20260507113023 | 49 | 336 | 1.0 | 3.0 | 0.00 | 0.21 | 0.02 | 96 | 1014.9 |
| 20260507112506 | 49 | 336 | 1.0 | 3.0 | 0.00 | 0.22 | 0.02 | 96 | 1014.6 |
| 20260507112005 | 49 | 336 | 1.0 | 4.0 | 0.00 | 0.23 | 0.02 | 96 | 1014.6 |
| 20260507111515 | 49 | 336 | 1.0 | 4.0 | 0.00 | 0.25 | 0.02 | 96 | 1014.5 |
| 20260507111007 | 49 | 334 | 1.0 | 4.0 | 0.00 | 0.25 | 0.02 | 96 | 1014.5 |
| 20260507110505 | 49 | 334 | 1.0 | 4.0 | 0.00 | 0.27 | 0.02 | 96 | 1014.5 |
| 20260507110021 | 49 | 335 | 2.0 | 3.0 | 0.00 | 0.27 | 0.02 | 96 | 1014.4 |
| 20260507105506 | 49 | 335 | 0.0 | 4.0 | 0.00 | 0.27 | 0.02 | 96 | 1014.4 |
| 20260507105006 | 49 | 335 | 0.0 | 4.0 | 0.00 | 0.27 | 0.02 | 95 | 1014.3 |
| 20260507104506 | 49 | 334 | 2.0 | 3.0 | 0.00 | 0.28 | 0.02 | 96 | 1014.1 |
| 20260507104003 | 50 | 334 | 0.0 | 2.0 | 0.00 | 0.29 | 0.02 | 96 | 1014.1 |
| 20260507103503 | 50 | 334 | 0.0 | 2.0 | 0.00 | 0.30 | 0.02 | 95 | 1014.2 |
| 20260507103010 | 50 | 334 | 0.0 | 3.0 | 0.00 | 0.31 | 0.02 | 96 | 1014.1 |
| 20260507102504 | 50 | 334 | 0.0 | 3.0 | 0.00 | 0.32 | 0.02 | 96 | 1014.1 |
| 20260507102003 | 50 | 334 | 0.0 | 0.0 | 0.00 | 0.33 | 0.02 | 96 | 1014.0 |
| 20260507101522 | 50 | 334 | 0.0 | 2.0 | 0.00 | 0.35 | 0.02 | 96 | 1013.9 |
| 20260507101009 | 50 | 334 | 0.0 | 3.0 | 0.00 | 0.37 | 0.02 | 96 | 1013.8 |
| 20260507100502 | 51 | 334 | 1.0 | 3.0 | 0.00 | 0.38 | 0.02 | 96 | 1014.0 |
| 20260507100032 | 51 | 334 | 0.0 | 2.0 | 0.00 | 0.38 | 0.02 | 96 | 1014.1 |
| 20260507095505 | 51 | 334 | 0.0 | 3.0 | 0.00 | 0.39 | 0.02 | 96 | 1014.0 |
| 20260507095007 | 51 | 334 | 0.0 | 3.0 | 0.00 | 0.39 | 0.02 | 96 | 1014.1 |
| 20260507094523 | 51 | 334 | 0.0 | 2.0 | 0.00 | 0.39 | 0.02 | 96 | 1014.1 |
| 20260507094007 | 51 | 334 | 0.0 | 2.0 | 0.00 | 0.39 | 0.02 | 96 | 1014.1 |
| 20260507093507 | 51 | 334 | 0.0 | 3.0 | 0.00 | 0.39 | 0.02 | 96 | 1014.1 |
| 20260507093028 | 51 | 334 | 0.0 | 3.0 | 0.00 | 0.39 | 0.02 | 96 | 1014.0 |
| 20260507092509 | 51 | 332 | 0.0 | 2.0 | 0.00 | 0.39 | 0.02 | 96 | 1014.1 |
| 20260507092002 | 51 | 332 | 1.0 | 2.0 | 0.00 | 0.39 | 0.02 | 96 | 1014.0 |
| 20260507091510 | 51 | 332 | 0.0 | 3.0 | 0.00 | 0.39 | 0.02 | 96 | 1013.9 |
| 20260507091005 | 51 | 332 | 0.0 | 3.0 | 0.00 | 0.39 | 0.02 | 96 | 1013.9 |
| 20260507090505 | 51 | 333 | 1.0 | 5.0 | 0.00 | 0.39 | 0.02 | 96 | 1013.9 |
| 20260507090016 | 52 | 360 | 2.0 | 5.0 | 0.00 | 0.39 | 0.02 | 96 | 1013.9 |
| 20260507085506 | 52 | 331 | 0.0 | 3.0 | 0.00 | 0.39 | 0.02 | 96 | 1013.9 |
| 20260507085006 | 52 | 331 | 1.0 | 2.0 | 0.00 | 0.39 | 0.02 | 96 | 1014.1 |
| 20260507084539 | 52 | 331 | 0.0 | 3.0 | 0.00 | 0.39 | 0.02 | 96 | 1014.3 |
| 20260507084007 | 52 | 331 | 1.0 | 3.0 | 0.00 | 0.39 | 0.02 | 96 | 1014.3 |
| 20260507083507 | 52 | 332 | 1.0 | 3.0 | 0.00 | 0.39 | 0.02 | 96 | 1014.1 |
| 20260507083027 | 52 | 331 | 0.0 | 4.0 | 0.00 | 0.39 | 0.02 | 96 | 1014.2 |
| 20260507082506 | 52 | 332 | 1.0 | 4.0 | 0.00 | 0.39 | 0.02 | 96 | 1014.3 |
| 20260507082007 | 52 | 331 | 0.0 | 2.0 | 0.00 | 0.39 | 0.02 | 96 | 1014.3 |
| 20260507081527 | 52 | 331 | 0.0 | 0.0 | 0.00 | 0.39 | 0.02 | 96 | 1014.3 |
| 20260507081015 | 52 | 331 | 0.0 | 0.0 | 0.00 | 0.39 | 0.02 | 96 | 1014.2 |
| 20260507080505 | 52 | 331 | 0.0 | 0.0 | 0.00 | 0.39 | 0.02 | 96 | 1014.1 |
| 20260507080016 | 52 | 331 | 0.0 | 0.0 | 0.00 | 0.39 | 0.02 | 96 | 1014.1 |
| 20260507075505 | 52 | 331 | 0.0 | 0.0 | 0.00 | 0.39 | 0.02 | 96 | 1014.3 |
| 20260507075008 | 52 | 331 | 0.0 | 0.0 | 0.00 | 0.39 | 0.02 | 96 | 1014.2 |
| 20260507074515 | 52 | 331 | 0.0 | 0.0 | 0.00 | 0.39 | 0.02 | 96 | 1014.3 |
| 20260507074005 | 52 | 331 | 0.0 | 0.0 | 0.00 | 0.39 | 0.02 | 96 | 1014.2 |
| 20260507073505 | 52 | 331 | 0.0 | 0.0 | 0.00 | 0.39 | 0.02 | 96 | 1014.1 |
| 20260507073024 | 52 | 331 | 0.0 | 0.0 | 0.00 | 0.39 | 0.02 | 96 | 1014.6 |
| 20260507072512 | 52 | 331 | 0.0 | 0.0 | 0.00 | 0.39 | 0.02 | 96 | 1014.7 |
| 20260507072007 | 52 | 331 | 0.0 | 0.0 | 0.00 | 0.39 | 0.02 | 96 | 1014.3 |
| 20260507071532 | 52 | 331 | 0.0 | 0.0 | 0.00 | 0.39 | 0.02 | 96 | 1014.0 |
| 20260507071008 | 52 | 332 | 0.0 | 0.0 | 0.00 | 0.39 | 0.02 | 96 | 1014.2 |
| 20260507070510 | 52 | 331 | 0.0 | 0.0 | 0.00 | 0.39 | 0.02 | 96 | 1014.1 |
| 20260507070028 | 52 | 331 | 0.0 | 0.0 | 0.00 | 0.39 | 0.02 | 95 | 1014.4 |
| 20260507065506 | 52 | 331 | 0.0 | 0.0 | 0.00 | 0.39 | 0.02 | 96 | 1014.4 |
| 20260507065011 | 52 | 331 | 0.0 | 0.0 | 0.00 | 0.39 | 0.02 | 95 | 1014.0 |
| 20260507064513 | 52 | 331 | 0.0 | 0.0 | 0.00 | 0.39 | 0.02 | 95 | 1014.0 |
| 20260507064006 | 52 | 331 | 0.0 | 3.0 | 0.01 | 0.39 | 0.02 | 95 | 1014.1 |
| 20260507063508 | 52 | 331 | 0.0 | 3.0 | 0.01 | 0.39 | 0.02 | 95 | 1014.0 |
| 20260507063020 | 52 | 331 | 1.0 | 3.0 | 0.01 | 0.39 | 0.02 | 96 | 1014.1 |
| 20260507062507 | 52 | 331 | 0.0 | 3.0 | 0.01 | 0.39 | 0.02 | 95 | 1014.4 |
| 20260507062006 | 52 | 331 | 1.0 | 3.0 | 0.01 | 0.39 | 0.02 | 95 | 1014.4 |
| 20260507061533 | 52 | 331 | 0.0 | 2.0 | 0.02 | 0.39 | 0.02 | 95 | 1014.5 |
| 20260507061012 | 52 | 331 | 1.0 | 3.0 | 0.02 | 0.39 | 0.02 | 95 | 1014.2 |
| 20260507060508 | 53 | 331 | 1.0 | 3.0 | 0.02 | 0.39 | 0.02 | 95 | 1014.3 |
| 20260507060036 | 53 | 331 | 0.0 | 2.0 | 0.02 | 0.39 | 0.02 | 95 | 1014.4 |
| 20260507055509 | 53 | 331 | 0.0 | 4.0 | 0.02 | 0.39 | 0.02 | 95 | 1014.5 |
| 20260507055006 | 53 | 331 | 0.0 | 4.0 | 0.02 | 0.39 | 0.02 | 95 | 1014.3 |
| 20260507054538 | 53 | 331 | 0.0 | 0.0 | 0.02 | 0.39 | 0.02 | 95 | 1014.6 |
| 20260507054009 | 53 | 331 | 0.0 | 0.0 | 0.01 | 0.38 | 0.01 | 95 | 1015.0 |
| 20260507053511 | 53 | 331 | 0.0 | 0.0 | 0.01 | 0.38 | 0.01 | 95 | 1015.1 |
| 20260507053031 | 53 | 331 | 0.0 | 0.0 | 0.01 | 0.38 | 0.01 | 95 | 1015.3 |
| 20260507052506 | 53 | 331 | 0.0 | 0.0 | 0.01 | 0.38 | 0.01 | 95 | 1015.3 |
| 20260507052007 | 53 | 331 | 0.0 | 0.0 | 0.01 | 0.38 | 0.01 | 95 | 1015.2 |
| 20260507051522 | 53 | 331 | 0.0 | 0.0 | 0.00 | 0.37 | 0.00 | 95 | 1015.4 |
| 20260507051011 | 53 | 331 | 0.0 | 0.0 | 0.00 | 0.37 | 0.00 | 95 | 1015.4 |
| 20260507050502 | 53 | 331 | 0.0 | 0.0 | 0.00 | 0.37 | 0.00 | 95 | 1015.6 |
| 20260507050011 | 53 | 331 | 0.0 | 0.0 | 0.00 | 0.37 | 0.00 | 95 | 1015.5 |
| 20260507045503 | 53 | 331 | 0.0 | 0.0 | 0.00 | 0.37 | 0.37 | 95 | 1015.3 |
| 20260507045003 | 53 | 331 | 0.0 | 1.0 | 0.00 | 0.37 | 0.37 | 95 | 1015.1 |
| 20260507044513 | 53 | 331 | 0.0 | 2.0 | 0.00 | 0.37 | 0.37 | 95 | 1015.2 |
| 20260507044003 | 53 | 331 | 1.0 | 2.0 | 0.00 | 0.37 | 0.37 | 95 | 1015.0 |
| 20260507043503 | 53 | 331 | 0.0 | 2.0 | 0.00 | 0.37 | 0.37 | 95 | 1015.0 |
| 20260507043016 | 53 | 331 | 0.0 | 2.0 | 0.00 | 0.37 | 0.37 | 95 | 1015.2 |
| 20260507042508 | 53 | 331 | 0.0 | 1.0 | 0.00 | 0.37 | 0.37 | 95 | 1015.0 |
| 20260507042007 | 53 | 331 | 0.0 | 2.0 | 0.00 | 0.37 | 0.37 | 95 | 1015.1 |
| 20260507041521 | 53 | 331 | 0.0 | 2.0 | 0.00 | 0.37 | 0.37 | 95 | 1014.9 |
| 20260507041006 | 53 | 331 | 0.0 | 3.0 | 0.00 | 0.37 | 0.37 | 95 | 1015.0 |
| 20260507040507 | 53 | 331 | 0.0 | 3.0 | 0.00 | 0.37 | 0.37 | 95 | 1015.1 |
| 20260507040025 | 53 | 331 | 1.0 | 4.0 | 0.00 | 0.37 | 0.37 | 95 | 1015.0 |
| 20260507035506 | 53 | 331 | 1.0 | 4.0 | 0.00 | 0.37 | 0.37 | 95 | 1014.8 |
| 20260507035005 | 53 | 330 | 1.0 | 4.0 | 0.00 | 0.37 | 0.37 | 95 | 1014.9 |
| 20260507034509 | 53 | 333 | 1.0 | 4.0 | 0.00 | 0.37 | 0.37 | 95 | 1014.9 |
| 20260507034005 | 53 | 333 | 1.0 | 3.0 | 0.00 | 0.37 | 0.37 | 95 | 1014.7 |
| 20260507033503 | 53 | 330 | 1.0 | 4.0 | 0.01 | 0.37 | 0.37 | 94 | 1014.8 |
| 20260507033020 | 53 | 330 | 1.0 | 5.0 | 0.01 | 0.37 | 0.37 | 94 | 1014.6 |
| 20260507032504 | 53 | 333 | 1.0 | 6.0 | 0.01 | 0.37 | 0.37 | 94 | 1014.7 |
| 20260507032003 | 53 | 331 | 2.0 | 6.0 | 0.02 | 0.37 | 0.37 | 94 | 1014.8 |
| 20260507031518 | 53 | 355 | 1.0 | 5.0 | 0.02 | 0.37 | 0.37 | 94 | 1014.9 |
| 20260507031006 | 53 | 328 | 1.0 | 5.0 | 0.02 | 0.37 | 0.37 | 94 | 1014.7 |
| 20260507030504 | 53 | 324 | 1.0 | 5.0 | 0.03 | 0.37 | 0.37 | 94 | 1014.8 |
| 20260507030022 | 53 | 338 | 2.0 | 4.0 | 0.04 | 0.37 | 0.37 | 94 | 1014.8 |
| 20260507025508 | 53 | 338 | 1.0 | 4.0 | 0.04 | 0.37 | 0.37 | 94 | 1014.7 |
| 20260507025013 | 53 | 348 | 1.0 | 4.0 | 0.04 | 0.37 | 0.37 | 94 | 1015.2 |
| 20260507024527 | 54 | 348 | 1.0 | 4.0 | 0.04 | 0.37 | 0.37 | 94 | 1015.1 |
| 20260507024006 | 54 | 334 | 1.0 | 4.0 | 0.04 | 0.37 | 0.37 | 94 | 1015.2 |
| 20260507023509 | 54 | 334 | 1.0 | 4.0 | 0.04 | 0.36 | 0.36 | 94 | 1015.4 |
| 20260507023025 | 54 | 334 | 2.0 | 4.0 | 0.04 | 0.36 | 0.36 | 94 | 1015.7 |
| 20260507022505 | 54 | 30 | 0.0 | 3.0 | 0.04 | 0.36 | 0.36 | 94 | 1015.5 |
| 20260507022005 | 54 | 30 | 0.0 | 5.0 | 0.03 | 0.35 | 0.35 | 94 | 1015.7 |
| 20260507021519 | 54 | 30 | 2.0 | 5.0 | 0.03 | 0.35 | 0.35 | 94 | 1015.5 |
| 20260507021003 | 54 | 286 | 0.0 | 4.0 | 0.03 | 0.35 | 0.35 | 94 | 1016.0 |
| 20260507020505 | 54 | 286 | 0.0 | 4.0 | 0.02 | 0.34 | 0.34 | 94 | 1016.3 |
| 20260507020023 | 54 | 286 | 1.0 | 3.0 | 0.01 | 0.34 | 0.33 | 94 | 1016.2 |
| 20260507015506 | 54 | 263 | 0.0 | 0.0 | 0.01 | 0.34 | 0.33 | 94 | 1015.5 |
| 20260507015006 | 54 | 259 | 0.0 | 3.0 | 0.01 | 0.34 | 0.33 | 94 | 1014.8 |
| 20260507014523 | 54 | 259 | 0.0 | 3.0 | 0.01 | 0.34 | 0.33 | 94 | 1015.0 |
| 20260507014010 | 54 | 259 | 1.0 | 3.0 | 0.01 | 0.34 | 0.33 | 94 | 1014.9 |
| 20260507013505 | 54 | 124 | 0.0 | 3.0 | 0.00 | 0.35 | 0.32 | 94 | 1015.0 |
| 20260507013030 | 54 | 123 | 1.0 | 2.0 | 0.00 | 0.42 | 0.32 | 94 | 1014.7 |
| 20260507012507 | 54 | 123 | 1.0 | 2.0 | 0.00 | 0.44 | 0.32 | 94 | 1014.5 |
| 20260507012010 | 54 | 124 | 0.0 | 3.0 | 0.00 | 0.44 | 0.32 | 93 | 1014.0 |
| 20260507011531 | 54 | 124 | 0.0 | 4.0 | 0.00 | 0.44 | 0.32 | 93 | 1013.5 |
| 20260507011005 | 54 | 124 | 2.0 | 4.0 | 0.00 | 0.46 | 0.32 | 93 | 1013.2 |
| 20260507010506 | 54 | 124 | 2.0 | 4.0 | 0.00 | 0.46 | 0.32 | 93 | 1013.1 |
| 20260507010028 | 54 | 124 | 0.0 | 6.0 | 0.00 | 0.46 | 0.32 | 93 | 1013.2 |
| 20260507005507 | 54 | 124 | 2.0 | 6.0 | 0.01 | 0.46 | 0.32 | 93 | 1013.4 |
| 20260507005012 | 54 | 124 | 1.0 | 5.0 | 0.01 | 0.46 | 0.32 | 93 | 1013.5 |
| 20260507004522 | 54 | 11 | 0.0 | 5.0 | 0.01 | 0.46 | 0.32 | 93 | 1013.3 |
| 20260507004006 | 54 | 207 | 2.0 | 5.0 | 0.02 | 0.46 | 0.32 | 93 | 1013.4 |
| 20260507003507 | 54 | 207 | 2.0 | 5.0 | 0.02 | 0.46 | 0.32 | 93 | 1013.7 |
| 20260507003022 | 54 | 207 | 0.0 | 4.0 | 0.02 | 0.46 | 0.32 | 93 | 1013.8 |
| 20260507002506 | 54 | 207 | 0.0 | 0.0 | 0.02 | 0.46 | 0.32 | 93 | 1014.0 |
| 20260507002008 | 54 | 207 | 0.0 | 0.0 | 0.02 | 0.46 | 0.32 | 93 | 1014.1 |
| 20260507001524 | 54 | 207 | 0.0 | 0.0 | 0.02 | 0.46 | 0.32 | 93 | 1014.6 |
| 20260507001007 | 54 | 207 | 0.0 | 0.0 | 0.02 | 0.46 | 0.32 | 93 | 1014.7 |
| 20260507000517 | 54 | 207 | 0.0 | 2.0 | 0.02 | 0.46 | 0.32 | 93 | 1014.5 |
| 20260507000032 | 54 | 207 | 0.0 | 3.0 | 0.02 | 0.46 | 0.32 | 93 | 1014.9 |
| 20260506235509 | 54 | 207 | 1.0 | 4.0 | 0.01 | 0.45 | 0.31 | 93 | 1014.9 |
| 20260506235007 | 54 | 207 | 0.0 | 5.0 | 0.01 | 0.45 | 0.31 | 93 | 1015.1 |
| 20260506234516 | 54 | 207 | 3.0 | 5.0 | 0.01 | 0.45 | 0.31 | 93 | 1015.8 |
| 20260506234006 | 54 | 295 | 2.0 | 4.0 | 0.00 | 0.44 | 0.30 | 93 | 1014.3 |
| 20260506233506 | 54 | 291 | 1.0 | 4.0 | 0.00 | 0.44 | 0.30 | 93 | 1014.3 |
| 20260506233020 | 54 | 257 | 0.0 | 3.0 | 0.00 | 0.44 | 0.30 | 93 | 1014.9 |
| 20260506232506 | 54 | 279 | 1.0 | 4.0 | 0.00 | 0.44 | 0.30 | 93 | 1014.1 |
| 20260506232008 | 55 | 279 | 2.0 | 5.0 | 0.00 | 0.44 | 0.30 | 93 | 1014.1 |
| 20260506231526 | 55 | 333 | 2.0 | 5.0 | 0.00 | 0.44 | 0.30 | 93 | 1013.8 |
| 20260506231007 | 55 | 9 | 1.0 | 3.0 | 0.00 | 0.44 | 0.30 | 93 | 1013.8 |
| 20260506230506 | 55 | 323 | 0.0 | 5.0 | 0.00 | 0.44 | 0.30 | 93 | 1014.3 |
| 20260506230026 | 55 | 323 | 2.0 | 5.0 | 0.00 | 0.44 | 0.30 | 93 | 1014.4 |
| 20260506225511 | 55 | 338 | 2.0 | 5.0 | 0.00 | 0.44 | 0.30 | 93 | 1014.5 |
| 20260506225010 | 55 | 327 | 1.0 | 4.0 | 0.00 | 0.44 | 0.30 | 93 | 1014.7 |
| 20260506224504 | 55 | 267 | 0.0 | 3.0 | 0.00 | 0.44 | 0.30 | 92 | 1014.5 |
| 20260506224001 | 55 | 267 | 0.0 | 2.0 | 0.00 | 0.44 | 0.30 | 92 | 1014.6 |
| 20260506223501 | 55 | 267 | 1.0 | 2.0 | 0.00 | 0.44 | 0.30 | 93 | 1014.4 |
| 20260506223003 | 55 | 313 | 0.0 | 2.0 | 0.00 | 0.44 | 0.30 | 93 | 1014.0 |
| 20260506222503 | 55 | 313 | 0.0 | 4.0 | 0.00 | 0.44 | 0.30 | 93 | 1013.9 |
| 20260506222006 | 55 | 313 | 0.0 | 4.0 | 0.00 | 0.44 | 0.30 | 92 | 1013.9 |
| 20260506221501 | 54 | 313 | 0.0 | 4.0 | 0.00 | 0.44 | 0.30 | 92 | 1014.1 |
| 20260506221003 | 55 | 313 | 1.0 | 4.0 | 0.00 | 0.44 | 0.30 | 92 | 1014.2 |
| 20260506220503 | 54 | 313 | 1.0 | 6.0 | 0.00 | 0.44 | 0.30 | 92 | 1014.4 |
| 20260506220014 | 55 | 246 | 1.0 | 6.0 | 0.00 | 0.44 | 0.30 | 92 | 1014.5 |
| 20260506215502 | 55 | 323 | 1.0 | 6.0 | 0.00 | 0.44 | 0.30 | 93 | 1014.4 |
| 20260506215006 | 55 | 323 | 2.0 | 9.0 | 0.00 | 0.44 | 0.30 | 92 | 1014.2 |
| 20260506214511 | 55 | 319 | 2.0 | 9.0 | 0.00 | 0.44 | 0.30 | 92 | 1014.1 |
| 20260506214006 | 55 | 329 | 3.0 | 9.0 | 0.00 | 0.44 | 0.30 | 92 | 1013.6 |
| 20260506213508 | 55 | 342 | 3.0 | 5.0 | 0.00 | 0.44 | 0.30 | 92 | 1013.2 |